Date,TemperatureHighF,TemperatureAvgF,TemperatureLowF,DewpointHighF,DewpointAvgF,DewpointLowF,HumidityHigh,HumidityAvg,HumidityLow,PressureMaxIn,PressureMinIn,WindSpeedMaxMPH,WindSpeedAvgMPH,GustSpeedMaxMPH,PrecipitationSumIn
2013-1-1,37,32,19,26,20,8,72,62,49,29.84,29.65,7,1,19,0.01
2013-1-2,29,22,14,18,13,7,81,66,57,30.02,29.82,8,1,12,0.00
2013-1-3,25,15,3,17,5,-4,73,65,57,30.07,29.88,10,2,14,0.00
2013-1-4,37,32,25,25,21,17,77,65,54,29.88,29.74,11,2,17,0.01
2013-1-5,41,34,26,26,22,19,81,62,50,30.10,29.81,16,5,16,0.07
2013-1-6,43,34,28,29,26,22,85,74,57,30.05,29.78,10,1,12,0.03
2013-1-7,40,35,26,30,25,21,82,69,54,30.22,29.86,10,2,16,0.00
2013-1-8,45,35,26,30,26,21,86,70,51,30.23,30.14,7,0,10,0.00
2013-1-9,40,35,26,35,30,22,91,80,68,30.21,29.93,11,1,15,0.00
2013-1-10,46,41,33,31,25,22,71,53,41,30.39,30.01,10,2,17,0.00
2013-1-11,37,33,29,34,27,24,95,76,66,30.39,29.99,3,1,5,0.28
2013-1-12,44,39,35,43,38,34,96,95,92,30.00,29.93,3,0,5,0.01
2013-1-13,44,42,39,43,41,39,100,97,96,29.97,29.82,2,0,11,0.00
2013-1-14,48,42,36,47,37,26,97,84,65,30.14,29.67,9,1,16,0.07
2013-1-15,37,34,31,27,25,22,77,68,60,30.20,30.07,8,2,10,0.00
2013-1-16,33,30,28,30,28,22,95,92,65,30.07,29.68,5,0,10,0.00
2013-1-17,41,34,26,32,27,12,95,77,54,29.95,29.73,10,2,15,0.20
2013-1-18,27,23,19,13,8,3,68,52,39,30.29,29.89,15,3,19,0.00
2013-1-19,46,36,26,28,22,12,68,58,44,30.20,29.69,8,1,23,0.05
2013-1-20,52,39,26,31,23,8,73,54,31,29.87,29.47,20,2,22,0.01
2013-1-21,29,25,20,21,13,6,91,61,43,29.92,29.65,7,1,16,0.00
2013-1-22,22,17,9,17,1,-7,83,49,34,30.01,29.64,12,3,20,0.00
2013-1-23,18,11,6,0,-3,-6,66,52,38,30.07,29.98,10,2,16,0.00
2013-1-24,21,12,4,2,-2,-5,76,55,36,30.21,29.99,17,3,25,0.00
2013-1-25,22,15,8,14,5,0,90,66,46,30.25,29.90,6,1,11,0.00
2013-1-26,25,18,10,13,8,5,91,67,44,30.20,29.89,14,2,18,0.00
2013-1-27,33,23,10,13,7,1,84,54,32,30.36,30.19,5,1,8,0.00
2013-1-28,32,27,19,31,21,3,94,80,48,30.33,29.82,7,0,9,0.00
2013-1-29,47,38,32,40,35,31,95,90,73,29.98,29.82,8,1,10,0.21
2013-1-30,57,47,37,54,46,36,96,94,89,29.92,29.17,7,1,17,0.27
2013-1-31,61,43,28,58,32,11,97,67,39,29.55,28.81,22,4,33,1.31
2013-2-1,31,26,20,15,10,5,64,51,37,30.03,29.54,14,3,22,0.00
2013-2-2,30,22,17,18,11,7,89,64,39,30.11,29.90,12,2,16,0.00
2013-2-3,29,23,16,18,16,12,92,77,51,29.90,29.62,5,0,7,0.00
2013-2-4,31,25,20,20,11,6,86,56,37,29.80,29.62,14,2,23,0.00
2013-2-5,29,25,20,25,19,10,92,79,55,29.85,29.74,6,1,8,0.00
2013-2-6,39,30,24,27,19,-1,93,67,32,30.20,29.75,11,1,20,0.04
2013-2-7,32,25,18,14,8,-1,67,48,33,30.37,30.18,8,1,11,0.00
2013-2-8,32,28,25,28,24,14,94,84,58,30.20,29.55,17,6,24,0.00
2013-2-9,30,24,16,23,14,4,93,67,34,30.19,29.61,20,6,26,0.00
2013-2-10,32,20,10,14,6,2,72,54,33,30.34,30.16,7,1,12,0.00
2013-2-11,38,33,23,37,30,12,96,87,60,30.16,29.50,3,0,8,0.35
2013-2-12,44,38,34,35,28,24,96,69,54,29.79,29.53,11,2,19,0.00
2013-2-13,43,36,29,30,24,21,92,61,43,29.77,29.53,7,1,11,0.00
2013-2-14,44,36,28,29,26,24,93,71,48,29.81,29.55,5,0,8,0.01
2013-2-15,53,42,32,33,28,25,78,61,42,29.82,29.72,7,1,14,0.00
2013-2-16,36,31,27,31,22,12,93,71,51,29.82,29.60,18,3,23,0.00
2013-2-17,30,23,15,13,5,1,56,45,31,29.79,29.49,20,6,31,0.00
2013-2-18,16,15,15,3,2,2,58,56,54,29.85,29.79,15,4,15,0.00
2013-2-19,42,34,26,36,25,11,95,71,48,30.03,29.49,16,2,17,0.16
2013-2-20,36,29,23,31,16,11,84,58,46,29.79,29.49,16,4,28,0.00
2013-2-21,33,26,22,16,13,11,71,59,46,30.17,29.77,15,3,20,0.00
2013-2-22,37,30,21,26,20,13,78,68,54,30.26,30.11,9,2,12,0.00
2013-2-23,38,35,33,37,32,26,95,88,75,30.11,29.67,7,1,12,0.07
2013-2-24,42,36,31,36,31,23,95,85,66,29.80,29.58,10,2,15,0.05
2013-2-25,45,36,26,30,26,21,86,67,50,30.08,29.80,8,1,9,0.00
2013-2-26,45,37,29,31,27,24,88,68,48,30.15,29.81,12,3,17,0.05
2013-2-27,45,39,32,42,37,30,95,92,85,29.81,29.33,20,4,25,0.72
2013-2-28,49,41,36,40,36,34,95,85,58,29.44,29.37,7,1,9,0.10
2013-3-1,44,37,32,35,30,25,95,77,58,29.61,29.42,11,2,16,0.01
2013-3-2,38,34,28,26,25,23,87,70,60,29.60,29.53,11,2,16,0.00
2013-3-3,37,30,27,26,21,16,88,69,48,29.59,29.51,13,3,15,0.00
2013-3-4,42,33,26,24,20,17,76,61,46,29.74,29.57,14,2,22,0.00
2013-3-5,44,36,28,28,25,21,78,65,50,29.87,29.74,11,3,18,0.00
2013-3-6,43,37,32,36,29,26,84,73,59,29.87,29.77,27,7,32,0.00
2013-3-7,37,34,31,31,29,25,94,82,65,29.94,29.83,19,6,25,0.00
2013-3-8,40,33,29,32,29,26,95,86,64,30.07,29.86,19,4,26,0.01
2013-3-9,51,41,30,27,23,18,73,51,27,30.15,30.05,22,4,23,0.00
2013-3-10,53,40,28,35,29,21,86,64,39,30.22,30.09,8,1,13,0.00
2013-3-11,54,44,34,46,38,31,91,80,58,30.14,29.89,11,2,15,0.00
2013-3-12,55,51,40,53,48,36,95,90,82,29.89,29.61,15,3,20,0.75
2013-3-13,50,41,34,37,30,24,87,68,38,29.91,29.80,9,2,14,0.00
2013-3-14,36,31,25,28,14,8,79,50,33,29.96,29.87,18,3,23,0.00
2013-3-15,41,34,25,32,20,10,82,57,43,29.98,29.73,10,2,17,0.00
2013-3-16,38,32,28,28,22,15,90,68,43,29.94,29.80,10,1,15,0.00
2013-3-17,38,32,24,28,15,8,89,53,30,30.36,29.95,15,3,17,0.00
2013-3-18,36,28,22,26,13,6,93,56,34,30.46,30.10,10,3,16,0.00
2013-3-19,38,33,28,34,30,22,95,90,63,30.10,29.73,9,2,16,0.22
2013-3-20,42,34,27,24,20,17,77,59,37,29.88,29.80,15,2,19,0.07
2013-3-21,38,32,27,24,18,11,80,58,36,29.86,29.65,14,2,19,0.00
2013-3-22,40,32,24,24,20,12,74,59,47,29.88,29.74,14,2,20,0.00
2013-3-23,43,37,31,26,21,17,69,54,38,30.09,29.84,13,3,24,0.00
2013-3-24,43,36,28,24,21,17,72,56,43,30.12,29.91,15,2,17,0.00
2013-3-25,46,38,31,28,24,22,75,59,41,29.92,29.65,16,5,22,0.00
2013-3-26,48,40,34,31,27,22,75,59,42,30.03,29.77,15,2,16,0.00
2013-3-27,52,41,28,29,25,21,81,55,31,30.13,30.02,10,1,16,0.00
2013-3-28,48,40,34,34,30,26,79,67,55,30.28,30.13,11,2,17,0.00
2013-3-29,52,44,33,32,29,26,78,55,38,30.32,30.22,14,2,14,0.00
2013-3-30,57,46,33,33,26,19,85,49,24,30.34,30.23,9,1,17,0.00
2013-3-31,57,44,30,41,29,20,94,59,31,30.30,29.87,14,2,24,0.16
2013-4-1,59,44,33,47,34,14,95,72,37,30.08,29.78,14,2,23,0.01
2013-4-2,41,34,28,19,14,10,65,45,28,30.25,30.08,17,3,31,0.00
2013-4-3,44,35,29,19,14,10,60,43,27,30.48,30.23,13,3,26,0.00
2013-4-4,55,41,26,29,20,13,68,45,23,30.56,30.23,8,2,17,0.00
2013-4-5,60,47,38,28,23,17,63,42,22,30.22,29.90,13,2,18,0.00
2013-4-6,50,40,32,22,11,4,62,34,17,30.46,30.17,17,3,22,0.00
2013-4-7,58,47,37,42,31,21,81,57,30,30.46,30.14,18,2,24,0.00
2013-4-8,68,54,42,44,40,38,90,63,35,30.27,30.14,8,1,9,0.00
2013-4-9,75,64,52,53,45,38,83,53,28,30.15,30.06,15,2,19,0.01
2013-4-10,64,54,48,54,49,42,95,83,60,30.07,29.64,13,2,22,0.25
2013-4-11,54,46,35,52,37,26,95,72,50,30.11,29.82,16,6,20,0.01
2013-4-12,41,38,35,38,34,30,92,87,77,30.10,29.77,11,4,16,0.39
2013-4-13,56,45,36,41,36,34,94,71,45,29.95,29.80,7,1,11,0.02
2013-4-14,52,46,41,36,30,25,81,54,38,30.24,29.94,14,2,18,0.00
2013-4-15,61,48,35,37,31,26,80,55,36,30.37,30.20,13,1,15,0.00
2013-4-16,67,55,44,53,45,29,89,70,53,30.31,30.02,11,2,20,0.01
2013-4-17,64,56,48,54,39,32,94,57,31,30.25,30.05,13,3,16,0.03
2013-4-18,62,52,44,49,39,32,88,62,39,30.29,30.04,13,3,20,0.00
2013-4-19,73,63,52,63,58,49,94,84,69,30.04,29.43,14,3,26,0.56
2013-4-20,58,49,40,51,35,20,94,63,33,30.16,29.51,13,3,29,0.31
2013-4-21,50,42,34,23,20,18,61,44,29,30.48,30.16,13,3,18,0.00
2013-4-22,57,46,36,34,28,20,76,52,29,30.54,30.35,15,3,21,0.00
2013-4-23,51,42,35,40,34,28,79,74,65,30.38,29.97,10,3,11,0.00
2013-4-24,74,55,37,50,44,35,94,70,41,29.98,29.60,8,2,15,0.00
2013-4-25,62,54,44,52,32,21,85,45,22,30.09,29.63,11,2,17,0.00
2013-4-26,63,51,38,38,32,28,81,51,32,30.25,30.08,11,3,16,0.00
2013-4-27,68,54,38,34,29,19,73,41,19,30.26,30.05,10,1,13,0.00
2013-4-28,73,58,43,43,35,29,67,44,24,30.08,29.90,10,1,19,0.00
2013-4-29,56,54,52,48,43,32,78,67,45,29.96,29.69,10,1,14,0.00
2013-4-30,71,58,50,45,38,27,76,50,24,29.84,29.72,10,1,16,0.00
2013-5-1,73,58,42,44,34,27,72,43,21,29.88,29.77,10,2,15,0.00
2013-5-2,77,62,44,48,43,40,88,55,29,29.87,29.54,9,1,16,0.00
2013-5-3,69,59,50,43,37,30,74,45,24,29.74,29.58,12,3,15,0.00
2013-5-4,74,58,42,48,43,38,94,62,29,29.64,29.45,10,1,13,0.00
2013-5-5,70,53,40,43,39,32,93,64,25,29.58,29.44,9,1,13,0.00
2013-5-6,73,57,40,52,46,38,93,69,43,30.19,29.39,12,1,12,0.00
2013-5-7,77,63,47,56,51,45,94,68,38,30.19,30.07,13,1,13,0.00
2013-5-8,66,61,56,63,57,53,95,89,83,30.14,30.00,21,1,21,0.36
2013-5-9,66,57,51,59,54,49,96,90,75,30.03,29.90,5,0,5,0.45
2013-5-10,78,65,50,60,54,48,96,72,45,30.02,29.88,8,0,8,0.01
2013-5-11,68,63,59,64,60,56,96,91,78,29.89,29.69,15,0,15,1.00
2013-5-12,66,57,46,59,43,26,96,64,26,29.92,29.67,20,2,22,0.00
2013-5-13,54,46,39,35,31,27,76,56,39,30.13,29.92,16,2,20,0.00
2013-5-14,61,49,35,36,30,23,90,53,26,30.17,30.03,7,1,8,0.00
2013-5-15,67,53,37,54,44,30,90,73,54,30.09,29.67,14,1,16,0.04
2013-5-16,83,68,49,55,46,38,96,52,23,29.85,29.71,21,1,21,0.01
2013-5-17,70,61,53,45,41,36,72,48,35,30.23,29.86,17,2,17,0.00
2013-5-18,71,57,44,51,47,41,91,71,43,30.33,30.23,12,0,12,0.00
2013-5-19,57,56,53,56,54,51,95,93,85,30.35,30.19,7,0,7,0.16
2013-5-20,81,67,55,67,60,54,96,81,57,30.19,29.72,9,0,9,0.00
2013-5-21,90,76,62,72,67,60,95,75,49,29.98,29.80,12,1,15,0.00
2013-5-22,82,72,63,71,65,58,91,80,67,29.93,29.82,16,1,16,0.00
2013-5-23,73,68,64,69,65,61,95,91,82,29.89,29.75,8,0,9,0.97
2013-5-24,64,54,43,63,52,40,96,93,89,30.00,29.68,15,1,16,0.83
2013-5-25,51,46,43,44,41,36,94,82,67,29.99,29.90,24,3,24,0.63
2013-5-26,62,53,44,43,38,34,77,58,39,30.19,29.92,21,2,22,0.00
2013-5-27,75,61,46,46,39,34,69,46,24,30.25,30.11,17,1,17,0.00
2013-5-28,68,56,46,55,49,40,95,78,46,30.25,30.16,5,0,6,0.20
2013-5-29,81,67,56,71,62,54,96,85,70,30.16,29.97,13,0,13,0.14
2013-5-30,91,78,63,72,67,61,95,71,45,30.12,30.04,10,0,12,0.00
2013-5-31,93,80,65,72,66,60,89,64,41,30.12,29.97,10,0,10,0.00
2013-6-1,92,79,65,73,66,59,88,66,44,30.01,29.88,10,0,10,0.00
2013-6-2,88,79,70,73,68,65,86,70,54,29.90,29.74,16,1,16,0.00
2013-6-3,76,69,58,66,61,46,92,75,51,29.93,29.79,12,1,12,1.21
2013-6-4,75,63,49,48,41,34,82,48,24,30.13,29.92,14,1,14,0.00
2013-6-5,76,63,48,50,44,34,83,52,31,30.23,30.10,8,0,8,0.00
2013-6-6,71,60,51,56,50,44,90,71,48,30.16,30.03,14,1,14,0.14
2013-6-7,60,57,55,57,55,52,92,91,89,30.04,29.72,12,1,12,1.98
2013-6-8,78,64,54,64,57,52,92,78,58,30.06,29.67,15,1,15,0.16
2013-6-9,80,69,57,60,57,54,93,67,42,30.18,30.06,7,0,8,0.00
2013-6-10,70,62,59,64,59,56,93,88,77,30.19,29.86,10,0,13,1.26
2013-6-11,78,66,59,69,61,54,94,84,68,29.86,29.60,17,1,17,0.29
2013-6-12,74,66,59,56,53,50,83,62,47,29.87,29.69,15,1,18,0.00
2013-6-13,58,56,52,55,53,50,93,91,83,29.85,29.59,16,1,20,1.82
2013-6-14,75,60,51,60,53,48,93,78,45,29.89,29.62,17,1,17,0.46
2013-6-15,80,68,53,59,51,44,93,59,31,30.02,29.89,8,0,9,0.00
2013-6-16,78,66,52,63,56,48,91,72,50,30.00,29.76,15,0,18,0.00
2013-6-17,86,72,62,68,61,54,89,70,36,29.93,29.83,14,1,15,0.02
2013-6-18,79,65,58,67,59,53,92,83,63,29.95,29.85,14,1,15,0.06
2013-6-19,74,64,54,53,49,44,85,60,36,30.18,29.93,15,1,15,0.01
2013-6-20,81,66,49,57,52,46,90,63,34,30.28,30.18,10,0,10,0.00
2013-6-21,84,72,58,66,59,54,85,64,46,30.29,30.21,10,0,10,0.00
2013-6-22,86,73,59,65,60,55,87,64,43,30.26,30.11,13,1,13,0.00
2013-6-23,92,77,65,71,64,57,81,66,36,30.18,30.03,14,1,14,0.00
2013-6-24,93,79,68,73,68,64,91,72,43,30.06,29.94,9,1,14,0.00
2013-6-25,90,77,65,75,69,63,93,78,52,30.01,29.79,14,0,16,0.49
2013-6-26,84,75,69,72,68,66,93,79,61,29.84,29.77,10,0,10,0.10
2013-6-27,86,73,67,73,68,64,94,85,58,29.83,29.51,20,1,20,0.70
2013-6-28,85,76,67,73,68,64,93,78,58,29.53,29.45,18,1,20,0.81
2013-6-29,85,74,65,68,65,62,94,76,49,29.68,29.40,14,0,14,0.01
2013-6-30,85,72,66,74,67,64,94,86,65,29.91,29.68,10,0,10,1.38
2013-7-1,76,71,68,72,69,66,94,92,87,30.02,29.90,7,0,7,1.25
2013-7-2,86,77,71,75,72,69,94,85,68,30.15,30.02,12,0,12,0.05
2013-7-3,88,78,71,75,71,68,90,81,59,30.22,30.13,12,0,12,0.00
2013-7-4,90,81,73,76,72,70,91,75,54,30.23,30.11,14,1,14,0.00
2013-7-5,92,83,73,76,72,69,87,70,50,30.19,30.05,14,1,16,0.00
2013-7-6,93,83,75,75,72,70,87,70,51,30.11,30.00,14,1,15,0.00
2013-7-7,94,83,73,78,73,65,92,72,49,30.04,29.90,9,0,9,0.00
2013-7-8,89,79,69,73,68,64,89,71,52,30.03,29.93,12,1,12,0.00
2013-7-9,90,76,67,73,69,65,93,80,53,30.08,29.98,9,0,10,0.00
2013-7-10,87,78,70,76,71,68,91,81,64,30.00,29.77,6,0,12,0.02
2013-7-11,86,76,70,72,68,63,87,75,59,29.94,29.77,11,0,12,0.02
2013-7-12,80,73,65,68,62,59,81,70,56,30.14,29.94,13,2,14,0.00
2013-7-13,81,71,64,72,66,60,88,84,73,30.28,30.14,4,1,9,0.04
2013-7-14,91,81,71,76,72,69,93,77,54,30.32,30.21,7,0,8,0.01
2013-7-15,93,84,75,76,72,68,83,67,50,30.23,30.13,11,0,14,0.00
2013-7-16,93,82,70,72,68,64,91,66,42,30.22,30.12,13,1,13,0.00
2013-7-17,95,83,71,74,70,67,92,68,41,30.21,30.03,7,0,7,0.00
2013-7-18,97,86,75,76,73,70,86,66,44,30.05,29.93,7,0,8,0.00
2013-7-19,96,86,76,79,74,72,89,70,52,29.95,29.75,13,1,17,0.00
2013-7-20,91,82,76,76,71,67,81,69,52,29.84,29.70,12,2,12,0.00
2013-7-21,88,78,68,68,64,59,83,63,39,29.96,29.84,7,0,8,0.03
2013-7-22,84,75,67,73,68,63,92,78,61,29.98,29.79,7,0,7,0.10
2013-7-23,89,76,70,75,71,67,94,86,56,29.79,29.55,21,0,21,1.62
2013-7-24,79,71,60,70,63,50,94,77,59,29.97,29.60,15,1,15,0.02
2013-7-25,71,63,57,60,53,47,79,70,65,30.08,29.97,15,2,15,0.00
2013-7-26,82,70,62,63,59,54,84,69,50,30.04,29.97,14,1,14,0.00
2013-7-27,84,73,61,67,62,58,93,70,47,30.04,29.93,12,0,12,0.00
2013-7-28,77,69,64,71,65,60,92,87,72,29.99,29.92,7,0,9,0.27
2013-7-29,84,74,66,69,62,53,94,70,41,30.10,29.95,11,1,13,0.00
2013-7-30,80,70,58,61,58,54,92,66,43,30.16,30.09,8,0,8,0.00
2013-7-31,82,71,58,62,59,54,92,68,42,30.16,30.02,5,0,6,0.00
2013-8-1,78,67,63,66,62,59,92,87,64,30.03,29.83,11,0,11,0.29
2013-8-2,82,72,64,68,63,59,94,74,46,29.89,29.79,13,1,13,0.03
2013-8-3,81,70,64,68,62,57,89,76,60,29.89,29.81,9,1,9,0.01
2013-8-4,80,68,58,63,57,49,92,69,43,29.96,29.84,17,1,17,0.28
2013-8-5,78,67,53,54,50,44,89,57,32,30.05,29.95,8,1,12,0.00
2013-8-6,82,68,52,60,54,49,90,65,37,30.11,30.03,8,0,8,0.00
2013-8-7,75,68,59,66,61,56,89,78,67,30.14,30.04,11,1,11,0.00
2013-8-8,84,74,69,73,68,65,89,82,65,30.05,29.98,11,1,11,0.00
2013-8-9,82,73,70,76,71,68,94,91,80,29.99,29.77,12,0,12,7.84
2013-8-10,83,72,64,69,60,51,94,68,42,30.05,29.85,11,1,12,0.01
2013-8-11,79,68,54,62,56,47,91,67,39,30.12,30.00,7,0,8,0.00
2013-8-12,82,72,61,64,60,56,92,70,44,30.03,29.91,4,0,7,0.00
2013-8-13,78,69,65,69,65,61,93,87,72,29.92,29.67,15,0,15,0.39
2013-8-14,74,65,54,64,53,48,93,67,47,30.02,29.75,17,1,17,0.00
2013-8-15,77,65,52,58,52,48,89,65,38,30.13,30.02,12,1,13,0.00
2013-8-16,80,67,53,62,55,50,93,68,39,30.19,30.11,6,0,6,0.00
2013-8-17,82,68,56,63,57,49,92,70,33,30.29,30.19,7,0,7,0.00
2013-8-18,75,67,59,66,61,56,92,81,67,30.27,30.11,5,0,5,0.00
2013-8-19,80,71,61,68,63,59,93,78,62,30.12,30.01,7,0,7,0.00
2013-8-20,86,74,61,66,63,58,93,71,42,30.13,30.04,6,0,6,0.01
2013-8-21,88,74,62,69,64,60,93,72,43,30.18,30.03,8,0,8,0.00
2013-8-22,83,74,66,72,67,62,93,81,63,30.05,29.84,12,0,12,0.05
2013-8-23,79,71,63,66,59,49,90,67,46,30.14,29.87,13,1,14,0.00
2013-8-24,78,66,54,57,52,49,84,63,37,30.34,30.14,13,1,13,0.00
2013-8-25,82,68,53,62,56,51,93,68,40,30.40,30.20,7,0,7,0.00
2013-8-26,77,69,65,69,62,55,92,78,66,30.21,29.89,11,0,11,0.55
2013-8-27,83,74,68,70,67,66,93,81,60,29.91,29.81,15,1,15,0.48
2013-8-28,86,72,66,72,67,64,94,85,61,29.90,29.84,12,0,12,0.00
2013-8-29,80,70,65,68,65,63,94,85,64,30.03,29.90,8,0,8,0.00
2013-8-30,84,74,65,70,66,62,92,78,56,30.02,29.83,9,0,9,0.00
2013-8-31,84,75,70,75,70,66,92,84,72,29.83,29.76,9,0,11,0.09
2013-9-1,82,74,69,75,70,67,93,88,76,29.84,29.78,6,0,6,0.87
2013-9-2,82,72,65,74,68,62,93,89,70,29.80,29.69,11,0,11,1.04
2013-9-3,78,67,62,66,61,55,94,82,52,29.86,29.72,12,0,12,0.04
2013-9-4,80,68,57,60,56,54,92,67,43,29.97,29.86,13,1,13,0.00
2013-9-5,73,65,53,60,51,40,83,63,36,30.15,29.88,13,1,18,0.00
2013-9-6,69,57,45,47,42,35,86,61,30,30.26,30.10,8,0,9,0.00
2013-9-7,78,62,46,57,51,43,92,68,39,30.10,29.86,7,0,7,0.00
2013-9-8,77,67,55,63,52,41,79,61,33,30.09,29.79,11,1,20,0.00
2013-9-9,72,59,46,56,48,41,87,66,42,30.24,30.08,8,0,8,0.00
2013-9-10,82,72,64,73,66,56,89,82,72,30.16,30.02,9,0,9,0.00
2013-9-11,94,81,72,78,72,65,92,75,53,30.09,29.94,20,0,20,0.00
2013-9-12,84,73,67,74,68,64,93,84,71,29.96,29.67,17,0,17,0.18
2013-9-13,76,65,55,65,59,49,94,82,57,29.83,29.62,12,0,12,0.29
2013-9-14,66,56,48,51,47,43,88,71,54,30.10,29.83,8,0,8,0.00
2013-9-15,68,56,41,51,46,39,93,72,39,30.21,30.05,7,0,8,0.00
2013-9-16,69,59,49,56,51,39,88,76,56,30.27,30.01,18,1,18,0.00
2013-9-17,63,52,41,45,40,37,86,67,44,30.45,30.27,14,1,14,0.00
2013-9-18,71,57,42,49,45,40,92,68,37,30.34,30.15,6,0,7,0.00
2013-9-19,76,60,46,54,49,44,92,70,37,30.17,30.04,6,0,6,0.00
2013-9-20,79,63,48,60,53,46,93,73,40,30.08,29.96,7,0,7,0.00
2013-9-21,74,64,54,64,59,51,93,82,66,29.99,29.61,15,1,15,0.50
2013-9-22,66,60,51,62,51,41,93,73,52,29.90,29.62,12,1,13,0.29
2013-9-23,63,54,44,44,41,38,84,63,43,30.05,29.90,13,1,15,0.00
2013-9-24,71,55,40,48,43,37,92,67,40,30.05,29.85,7,0,7,0.00
2013-9-25,71,57,44,53,47,41,92,72,44,29.96,29.86,5,0,6,0.00
2013-9-26,68,58,52,53,49,47,91,74,55,30.11,29.94,12,1,12,0.00
2013-9-27,65,56,47,53,49,44,90,76,62,30.27,30.11,9,1,9,0.00
2013-9-28,73,58,48,55,50,46,93,76,47,30.35,30.23,6,0,7,0.00
2013-9-29,72,58,48,56,50,46,93,78,47,30.23,30.05,7,0,7,0.01
2013-9-30,74,59,46,56,49,43,93,74,41,30.08,29.95,6,0,6,0.00
2013-10-1,79,61,48,60,53,46,93,79,48,30.01,29.87,5,0,5,0.01
2013-10-2,81,67,53,64,57,51,94,73,50,29.99,29.88,12,0,12,0.01
2013-10-3,76,64,50,58,54,48,93,71,44,30.12,29.99,5,0,5,0.00
2013-10-4,78,65,55,65,59,53,92,81,65,30.04,29.95,8,1,9,0.00
2013-10-5,76,64,58,63,59,56,91,85,64,30.10,30.01,8,0,9,0.04
2013-10-6,61,59,57,60,57,55,94,92,91,30.09,30.02,9,1,9,0.84
2013-10-7,73,64,55,68,61,48,93,89,76,30.02,29.68,22,1,32,0.74
2013-10-8,65,56,47,48,44,41,90,66,42,30.34,29.95,14,1,14,0.00
2013-10-9,63,52,43,48,43,38,91,72,44,30.44,30.32,11,1,12,0.00
2013-10-10,55,51,46,46,44,41,89,77,67,30.32,30.12,9,1,9,0.00
2013-10-11,68,58,50,56,48,42,77,68,59,30.12,30.04,9,2,11,0.00
2013-10-12,72,59,47,55,49,44,88,72,47,30.31,30.11,14,2,15,0.00
2013-10-13,66,56,49,50,48,45,88,74,53,30.40,30.30,12,1,12,0.00
2013-10-14,68,55,44,50,47,42,92,76,48,30.36,30.22,7,0,7,0.00
2013-10-15,72,58,48,57,49,38,92,73,50,30.25,30.10,7,0,7,0.00
2013-10-16,62,56,48,55,50,43,87,80,71,30.11,29.89,4,0,4,0.00
2013-10-17,74,63,58,60,57,54,90,82,50,29.89,29.78,12,0,12,0.00
2013-10-18,67,59,51,60,46,39,89,63,38,29.95,29.61,17,8,17,0.01
2013-10-19,65,53,43,50,43,38,91,69,39,29.96,29.71,17,1,18,0.11
2013-10-20,61,52,45,49,40,34,92,66,37,30.04,29.72,15,1,18,0.01
2013-10-21,67,53,41,43,39,36,84,61,35,30.12,29.95,8,1,9,0.00
2013-10-22,61,51,44,49,44,38,88,75,53,29.95,29.72,9,0,12,0.00
2013-10-23,53,43,0,41,36,31,92,77,46,29.81,29.62,13,0,13,0.00
2013-10-24,53,43,36,36,30,26,84,62,38,29.96,29.73,19,2,19,0.00
2013-10-25,52,42,35,32,30,27,79,62,43,30.19,29.96,18,1,18,0.00
2013-10-26,54,44,34,33,30,26,86,60,35,30.18,29.86,20,1,26,0.00
2013-10-27,56,48,41,35,31,28,68,52,37,30.09,29.82,17,2,18,0.00
2013-10-28,60,46,36,35,32,28,81,59,37,30.33,30.08,17,2,18,0.00
2013-10-29,50,41,35,30,26,23,71,54,40,30.44,30.33,8,1,8,0.00
2013-10-30,54,43,33,45,36,25,91,77,64,30.34,30.17,6,0,6,0.00
2013-10-31,59,49,38,57,47,35,93,92,89,30.22,29.79,11,0,11,0.24
2013-11-1,69,62,54,61,54,43,92,77,49,29.75,29.46,28,5,28,0.40
2013-11-2,66,52,44,49,44,40,89,73,40,29.77,29.59,17,1,17,0.00
2013-11-3,47,39,32,42,29,17,82,66,51,30.48,29.77,20,4,20,0.00
2013-11-4,43,34,26,22,19,17,69,54,37,30.68,30.48,14,1,14,0.00
2013-11-5,54,42,30,39,31,19,81,66,51,30.68,30.49,9,0,9,0.00
2013-11-6,60,51,42,48,44,38,89,76,58,30.50,30.04,13,1,13,0.00
2013-11-7,59,52,38,56,45,27,92,79,58,30.04,29.75,17,1,17,0.13
2013-11-8,46,40,36,31,28,26,78,64,48,30.19,29.92,24,2,24,0.00
2013-11-9,48,42,37,30,28,26,69,58,45,30.27,29.99,13,1,13,0.00
2013-11-10,57,47,43,38,33,28,71,60,45,30.03,29.81,24,2,24,0.00
2013-11-11,52,46,39,32,30,27,63,52,41,30.19,29.93,19,2,19,0.00
2013-11-12,48,35,27,36,22,14,88,60,44,30.27,29.93,20,3,21,0.02
2013-11-13,38,31,24,18,14,8,65,50,30,30.36,30.23,15,2,15,0.00
2013-11-14,54,41,29,21,17,11,65,42,18,30.23,30.09,22,2,22,0.00
2013-11-15,59,46,33,28,22,16,68,40,19,30.24,30.13,9,0,11,0.00
2013-11-16,62,50,40,43,36,24,89,61,36,30.34,30.23,9,0,9,0.01
2013-11-17,50,45,41,46,42,38,91,89,83,30.28,30.18,5,0,5,0.00
2013-11-18,61,54,44,54,39,23,92,59,32,29.78,29.55,22,9,22,0.30
2013-11-19,46,40,31,29,24,20,63,52,45,30.38,29.78,21,3,24,0.00
2013-11-20,39,33,27,20,16,13,64,51,34,30.62,30.38,19,4,19,0.00
2013-11-21,48,36,21,36,24,15,80,64,42,30.65,30.39,9,1,9,0.00
2013-11-22,54,48,44,48,43,36,91,83,72,30.39,29.90,13,0,13,0.16
2013-11-23,52,39,26,44,23,9,74,53,37,30.05,29.89,21,3,24,0.00
2013-11-24,28,24,21,13,4,-4,67,43,26,30.35,29.99,26,4,26,0.00
2013-11-25,35,27,16,15,12,-4,75,54,40,30.48,30.29,16,1,16,0.00
2013-11-26,35,32,30,31,23,12,91,70,44,30.35,29.87,15,1,18,0.62
2013-11-27,52,40,32,50,37,20,92,88,61,29.86,29.38,29,3,31,1.60
2013-11-28,34,29,26,21,13,9,66,52,38,30.48,29.71,34,4,34,0.00
2013-11-29,34,29,24,19,16,10,76,59,50,30.77,30.48,7,1,7,0.00
2013-11-30,33,27,18,21,14,10,74,59,41,30.80,30.41,8,1,8,0.00
2013-12-1,43,36,30,30,27,21,82,68,58,30.41,30.04,4,0,5,0.00
2013-12-2,42,36,31,35,31,27,90,83,74,30.04,29.92,4,0,4,0.01
2013-12-3,39,33,29,36,30,26,91,90,84,30.05,29.92,3,0,3,0.01
2013-12-4,45,36,26,37,30,23,91,80,67,30.17,30.04,4,0,4,0.01
2013-12-5,53,48,41,51,45,32,92,88,70,30.17,29.95,5,0,5,0.23
2013-12-6,54,43,32,52,39,30,93,88,76,30.19,29.90,17,4,17,0.59
2013-12-7,38,33,27,32,26,16,91,75,52,30.54,30.14,14,1,16,0.05
2013-12-8,29,27,0,23,18,15,86,68,63,30.58,30.43,6,0,6,0.00
2013-12-9,33,30,26,31,28,23,92,90,86,30.43,29.96,17,1,17,0.01
2013-12-10,34,31,24,31,26,17,90,83,75,30.09,29.86,16,2,18,0.00
2013-12-11,30,25,21,20,17,14,75,70,61,30.29,30.09,17,2,17,0.00
2013-12-12,26,21,17,15,9,5,73,60,45,30.36,30.14,14,1,17,0.00
2013-12-13,32,24,17,19,12,5,70,58,49,30.38,30.09,21,3,27,0.00
2013-12-14,21,16,13,14,10,8,86,79,58,30.55,29.95,21,4,21,0.00
2013-12-15,34,27,16,31,22,13,90,84,69,29.94,29.58,23,4,25,0.00
2013-12-16,29,24,15,22,10,6,80,56,43,30.24,29.80,23,2,26,0.00
2013-12-17,19,14,9,16,10,4,87,83,64,30.25,29.98,9,2,10,0.00
2013-12-18,35,24,13,23,17,10,87,74,56,30.15,29.97,13,1,13,0.01
2013-12-19,43,34,25,26,22,18,77,61,46,30.17,30.02,13,1,14,0.08
2013-12-20,52,42,33,31,29,25,77,62,44,30.11,29.96,8,0,9,0.15
2013-12-21,57,48,40,44,38,31,85,69,55,30.00,29.89,6,0,6,0.01
2013-12-22,66,60,48,60,54,43,92,82,67,29.97,29.75,21,1,22,0.09
2013-12-23,59,46,36,54,43,30,92,88,80,30.18,29.94,18,3,18,0.72
2013-12-24,36,30,20,30,22,8,88,73,55,30.35,30.12,21,3,21,0.00
2013-12-25,24,19,14,12,7,4,68,59,47,30.56,30.35,13,1,13,0.00
2013-12-26,32,26,21,24,19,11,84,75,66,30.44,30.17,9,0,9,0.00
2013-12-27,36,30,25,24,21,17,83,67,54,30.35,30.26,17,1,17,0.00
2013-12-28,49,38,30,27,25,22,75,60,42,30.27,30.06,12,1,13,0.00
2013-12-29,42,38,35,36,31,26,91,77,60,30.06,29.51,23,2,23,0.86
2013-12-30,40,32,16,35,22,7,91,69,48,30.24,29.69,17,2,21,0.00
2013-12-31,29,21,13,21,11,6,81,66,50,30.27,30.05,21,1,23,0.00
2014-1-1,31,24,18,19,12,7,80,60,46,30.42,30.26,14,2,14,0.00
2014-1-2,22,12,4,17,8,-1,84,82,79,30.32,29.80,30,8,30,0.00